When you browse on this site, cookies collect data to enhance your experience and personalize the content and advertising you see.
Visit our Privacy Policy to learn more. By continuing to use the site, you agree to this use of cookies and data.
  • In United Kingdom
  • List of Countries
  • For 7 days
  • Water Temperature
  • Satellite Maps
  • Weather Map
  • Weather Widgets
  • user-avatar
    Login

    Hourly Weather Sopron

    Today, 18 June, Tuesday

    Time Temperature Precipitation Wind Pressure Humidity
    00:00 +20°C° 0 mm 1 mps 747 mmHg 83%
    01:00 +20°C° 0 mm 1 mps 747 mmHg 83%
    02:00 +20°C° 0 mm 1 mps 747 mmHg 84%
    03:00 +19°C° 0 mm 1 mps 746 mmHg 85%
    04:00 +19°C° 0 mm 1 mps 746 mmHg 86%
    05:00 +20°C° 0 mm 1 mps 746 mmHg 83%
    06:00 +21°C° 0 mm 1 mps 746 mmHg 80%
    07:00 +20°C° 0 mm 0 mps 747 mmHg 77%
    08:00 +23°C° 0 mm 1 mps 747 mmHg 71%
    09:00 +25°C° 0 mm 1 mps 747 mmHg 65%
    10:00 +26°C° 0 mm 1 mps 746 mmHg 59%
    11:00 +27°C° 0 mm 1 mps 746 mmHg 57%
    12:00 +28°C° 0 mm 2 mps 746 mmHg 55%
    13:00 +28°C° 0 mm 2 mps 745 mmHg 53%
    14:00 +28°C° 0.1 mm 2 mps 745 mmHg 55%
    15:00 +28°C° 0.1 mm 2 mps 745 mmHg 57%
    16:00 +28°C° 0.1 mm 2 mps 745 mmHg 58%
    17:00 +27°C° 0 mm 2 mps 744 mmHg 64%
    18:00 +26°C° 0 mm 2 mps 744 mmHg 70%
    19:00 +25°C° 0 mm 2 mps 744 mmHg 76%
    20:00 +24°C° 0 mm 1 mps 744 mmHg 79%
    21:00 +22°C° 0 mm 1 mps 744 mmHg 82%
    22:00 +21°C° 0 mm 1 mps 744 mmHg 85%
    23:00 +21°C° 0 mm 1 mps 744 mmHg 86%

    Tomorrow, 19 June, Wednesday

    Time Temperature Precipitation Wind Pressure Humidity
    00:00 +21°C° 0 mm 1 mps 744 mmHg 87%
    01:00 +20°C° 0 mm 1 mps 744 mmHg 88%
    02:00 +20°C° 0 mm 1 mps 744 mmHg 88%
    03:00 +20°C° 0 mm 1 mps 744 mmHg 89%
    04:00 +17°C° 0 mm 0 mps 744 mmHg 89%
    05:00 +19°C° 0 mm 0 mps 744 mmHg 84%
    06:00 +20°C° 0 mm 0 mps 744 mmHg 79%
    07:00 +24°C° 0 mm 1 mps 744 mmHg 74%
    08:00 +25°C° 0 mm 1 mps 744 mmHg 69%
    09:00 +27°C° 0 mm 1 mps 743 mmHg 64%
    10:00 +28°C° 0 mm 2 mps 743 mmHg 58%
    11:00 +29°C° 0 mm 2 mps 743 mmHg 56%
    12:00 +30°C° 0 mm 3 mps 743 mmHg 53%
    13:00 +31°C° 0 mm 3 mps 742 mmHg 50%
    14:00 +31°C° 0.1 mm 3 mps 742 mmHg 51%
    15:00 +30°C° 0.1 mm 3 mps 742 mmHg 53%
    16:00 +30°C° 0.1 mm 3 mps 742 mmHg 54%
    17:00 +28°C° 0.6 mm 3 mps 742 mmHg 63%
    18:00 +27°C° 0.6 mm 2 mps 742 mmHg 71%
    19:00 +25°C° 0.6 mm 2 mps 742 mmHg 79%
    20:00 +24°C° 0.1 mm 1 mps 742 mmHg 80%
    21:00 +23°C° 0.1 mm 1 mps 742 mmHg 82%
    22:00 +21°C° 0.1 mm 1 mps 742 mmHg 83%
    23:00 +21°C° 0.1 mm 1 mps 742 mmHg 84%

    Day after tomorrow, 20 June, Thursday

    Time Temperature Precipitation Wind Pressure Humidity
    00:00 +20°C° 0.1 mm 1 mps 742 mmHg 85%
    01:00 +20°C° 0.1 mm 1 mps 742 mmHg 86%
    02:00 +20°C° 0.1 mm 1 mps 742 mmHg 87%
    03:00 +19°C° 0.1 mm 1 mps 742 mmHg 88%
    04:00 +19°C° 0.1 mm 1 mps 742 mmHg 89%
    05:00 +20°C° 0 mm 1 mps 742 mmHg 86%
    06:00 +22°C° 0 mm 1 mps 743 mmHg 83%
    07:00 +23°C° 0 mm 1 mps 743 mmHg 80%
    08:00 +25°C° 0.5 mm 1 mps 743 mmHg 76%
    09:00 +26°C° 0.5 mm 1 mps 743 mmHg 72%
    10:00 +28°C° 0.5 mm 2 mps 743 mmHg 68%
    11:00 +29°C° 0.3 mm 2 mps 742 mmHg 62%
    12:00 +30°C° 0.3 mm 2 mps 742 mmHg 56%
    13:00 +31°C° 0.3 mm 2 mps 742 mmHg 50%
    14:00 +31°C° 0 mm 2 mps 741 mmHg 50%
    15:00 +31°C° 0 mm 2 mps 741 mmHg 49%
    16:00 +31°C° 0 mm 2 mps 741 mmHg 49%
    17:00 +29°C° 0.2 mm 2 mps 741 mmHg 57%
    18:00 +28°C° 0.2 mm 2 mps 741 mmHg 64%
    19:00 +26°C° 0.2 mm 2 mps 741 mmHg 72%
    20:00 +25°C° 0 mm 2 mps 741 mmHg 74%
    21:00 +24°C° 0 mm 2 mps 741 mmHg 77%
    22:00 +23°C° 0 mm 1 mps 742 mmHg 79%
    23:00 +21°C° 1.1 mm 2 mps 742 mmHg 82%

    21 June, Friday

    Time Temperature Precipitation Wind Pressure Humidity
    00:00 +21°C° 1.1 mm 2 mps 742 mmHg 85%
    01:00 +20°C° 1.1 mm 2 mps 742 mmHg 88%
    02:00 +20°C° 1.4 mm 3 mps 742 mmHg 89%
    03:00 +19°C° 1.4 mm 3 mps 742 mmHg 89%
    04:00 +19°C° 1.4 mm 3 mps 743 mmHg 90%
    05:00 +20°C° 0.5 mm 4 mps 743 mmHg 86%
    06:00 +21°C° 0.5 mm 4 mps 743 mmHg 83%
    07:00 +22°C° 0.5 mm 4 mps 744 mmHg 80%
    08:00 +23°C° 0 mm 4 mps 744 mmHg 74%
    09:00 +26°C° 0 mm 4 mps 744 mmHg 68%
    10:00 +27°C° 0 mm 4 mps 744 mmHg 62%
    11:00 +28°C° 0.3 mm 4 mps 743 mmHg 62%
    12:00 +28°C° 0.3 mm 3 mps 743 mmHg 62%
    13:00 +28°C° 0.3 mm 3 mps 743 mmHg 62%
    14:00 +28°C° 1.3 mm 3 mps 743 mmHg 64%
    15:00 +27°C° 1.3 mm 3 mps 743 mmHg 67%
    16:00 +27°C° 1.3 mm 2 mps 743 mmHg 70%
    17:00 +26°C° 0.7 mm 2 mps 743 mmHg 74%
    18:00 +24°C° 0.7 mm 2 mps 743 mmHg 79%
    19:00 +23°C° 0.7 mm 2 mps 743 mmHg 84%
    20:00 +23°C° 0 mm 2 mps 743 mmHg 84%
    21:00 +21°C° 0 mm 2 mps 744 mmHg 84%
    22:00 +21°C° 0 mm 3 mps 744 mmHg 83%
    23:00 +21°C° 0.2 mm 3 mps 744 mmHg 85%

    22 June, Saturday

    Time Temperature Precipitation Wind Pressure Humidity
    00:00 +20°C° 0.2 mm 4 mps 744 mmHg 86%
    01:00 +20°C° 0.2 mm 4 mps 744 mmHg 87%
    02:00 +20°C° 0.4 mm 4 mps 744 mmHg 89%
    03:00 +19°C° 0.4 mm 4 mps 744 mmHg 90%
    04:00 +19°C° 0.4 mm 3 mps 744 mmHg 91%
    05:00 +19°C° 0 mm 3 mps 745 mmHg 90%
    06:00 +20°C° 0 mm 4 mps 745 mmHg 88%
    07:00 +20°C° 0 mm 4 mps 745 mmHg 87%
    08:00 +21°C° 0 mm 4 mps 745 mmHg 82%
    09:00 +22°C° 0 mm 4 mps 745 mmHg 78%
    10:00 +23°C° 0 mm 5 mps 745 mmHg 73%
    11:00 +23°C° 0 mm 5 mps 745 mmHg 71%
    12:00 +25°C° 0 mm 5 mps 745 mmHg 69%
    13:00 +26°C° 0 mm 5 mps 745 mmHg 67%
    14:00 +25°C° 0 mm 4 mps 745 mmHg 68%
    15:00 +25°C° 0 mm 4 mps 745 mmHg 69%
    16:00 +25°C° 0 mm 3 mps 744 mmHg 70%
    17:00 +25°C° 0 mm 3 mps 744 mmHg 74%
    18:00 +24°C° 0 mm 2 mps 744 mmHg 78%
    19:00 +23°C° 0 mm 2 mps 744 mmHg 82%
    20:00 +22°C° 0.2 mm 1 mps 745 mmHg 84%
    21:00 +21°C° 0.2 mm 1 mps 745 mmHg 87%
    22:00 +20°C° 0.2 mm 1 mps 745 mmHg 89%
    23:00 +20°C° 0.1 mm 1 mps 745 mmHg 90%

    23 June, Sunday

    Time Temperature Precipitation Wind Pressure Humidity
    00:00 +20°C° 0.1 mm 1 mps 745 mmHg 91%
    01:00 +19°C° 0.1 mm 1 mps 745 mmHg 91%
    02:00 +19°C° 0.1 mm 1 mps 745 mmHg 92%
    03:00 +18°C° 0.1 mm 2 mps 745 mmHg 93%
    04:00 +18°C° 0.1 mm 2 mps 745 mmHg 94%
    05:00 +19°C° 0 mm 3 mps 745 mmHg 91%
    06:00 +20°C° 0 mm 3 mps 746 mmHg 88%
    07:00 +20°C° 0 mm 3 mps 746 mmHg 85%
    08:00 +22°C° 0 mm 3 mps 746 mmHg 77%
    09:00 +25°C° 0 mm 4 mps 746 mmHg 68%
    10:00 +26°C° 0 mm 4 mps 746 mmHg 60%
    11:00 +27°C° 0 mm 4 mps 746 mmHg 58%
    12:00 +28°C° 0 mm 4 mps 746 mmHg 56%
    13:00 +28°C° 0 mm 5 mps 746 mmHg 54%
    14:00 +28°C° 0.1 mm 5 mps 746 mmHg 57%
    15:00 +27°C° 0.1 mm 5 mps 746 mmHg 61%
    16:00 +27°C° 0.1 mm 5 mps 746 mmHg 64%
    17:00 +25°C° 0 mm 4 mps 747 mmHg 70%
    18:00 +24°C° 0 mm 3 mps 747 mmHg 75%
    19:00 +22°C° 0 mm 3 mps 747 mmHg 81%
    20:00 +20°C° 0 mm 3 mps 748 mmHg 84%
    21:00 +19°C° 0 mm 3 mps 748 mmHg 87%
    22:00 +18°C° 0 mm 3 mps 749 mmHg 89%
    23:00 +18°C° 0 mm 3 mps 749 mmHg 89%
    Show more